User: anonymous   Login
Location: Unspecified
(39.1722°N, 0.0000°E)
Time: 02:22:26
(UTC+00:00)
Language:

Sapphire - Orbit

View from above orbital plane
View from above orbital plane
View from above satellite
View from above satellite

Ground track
Ground track

The orbit is defined by the following mean orbital elements,

1 26932U          26087.43851808 +.00000000 +00000-0 +62439-4 0 00003
2 26932  67.0536 101.6502 0008695 263.0868  96.9244 14.31270336    01
Epoch (UTC): 28 March 2026 10:31:27
Eccentricity: 0.0008695
inclination: 67.0536°
perigee height: 781 km
apogee height: 794 km
right ascension of ascending node: 101.6502°
argument of perigee: 263.0868°
revolutions per day: 14.31270336
mean anomaly at epoch: 96.9244°

The dashed part of the orbit path shows where the satellite is in the earth's shadow,  

DLR